Location: Harbor View
(36.2448°N, 86.5797°W)
Time: 09:27:36
(UTC+00:00)

Cosmos 1939 Rocket - Pass Details

Date: 29 October 2020
Orbit: 533 x 583 km, 97.4° (Epoch: 04 December)

Event Time Altitude Azimuth Distance (km) Brightness Sun altitude
Rises 23:16:15 0° 140° (SE) 2,732 6.1 -5.4°
Reaches altitude 10° 23:18:40 10° 126° (SE) 1,832 5.1 -5.9°
Maximum altitude 23:21:54 25° 72° (ENE) 1,147 3.9 -6.5°
Drops below altitude 10° 23:25:07 10° 16° (NNE) 1,818 5.2 -7.2°
Sets 23:27:30 0° 3° (N) 2,708 6.2 -7.6°
